Location: Stoke Bliss
(52.2667°N, 2.5167°W)
Time: 16:48:03
(UTC+00:00)

Cosmos 1295 Rocket - Pass Details

Date: 03 March 2021
Orbit: 943 x 994 km, 82.9° (Epoch: 16 April)

Event Time Altitude Azimuth Distance (km) Brightness Sun altitude
Rises 19:21:05 0° 188° (S) 3,675 7.5 -14.2°
Reaches altitude 10° 19:23:36 10° 189° (S) 2,724 6.9 -14.6°
Maximum altitude 19:29:52 88° 276° (W) 978 4.5 -15.5°
Drops below altitude 10° 19:36:05 10° 10° (N) 2,707 6.8 -16.4°
Sets 19:38:35 0° 11° (N) 3,650 7.5 -16.8°
